This demonstration page uses our WeatherBlox Daily Observations layout. Learn more.

Left ArrowRight Arrow

47.50024, -111.30081

Hourly Observations for March 3, 2015

Temp ( °F °C ) Dew Point ( °F °C ) Humidity (%) Winds ( mph kmh ) Pressure ( in mb ) Visibility ( mi km ) Precip ( " mm )
12:53 am 00:53 Cloudy 10 -12.2 6 -14.4 84 84 N 7 11 30.37 1029 10 16 0.00 0.00
1:53 am 01:53 Mostly Cloudy 5 -15 0 -17.8 79 79 N 7 11 30.40 1029 10 16 0.00 0.00
2:53 am 02:53 Cloudy 4 -15.6 -1 -18.3 80 80 N 8 13 30.42 1030 10 16 0.00 0.00
3:53 am 03:53 Cloudy 2 -16.7 -2 -18.9 83 83 NE 5 7 30.43 1031 10 16 0.00 0.00
4:53 am 04:53 Clear 2 -16.7 -1 -18.3 88 88 Calm 30.45 1031 10 16 0.00 0.00
5:53 am 05:53 Clear 2 -16.7 -2 -18.9 83 83 Calm 30.43 1030 10 16 0.00 0.00
6:53 am 06:53 Clear -5 -20.6 -8 -22.2 87 87 SW 7 11 30.44 1031 10 16 0.00 0.00
7:53 am 07:53 Mostly Sunny 1 -17.2 -2 -18.9 87 87 SW 7 11 30.42 1030 10 16 0.00 0.00
8:53 am 08:53 Mostly Sunny 4 -15.6 1 -17.2 88 88 SW 6 9 30.41 1030 10 16 0.00 0.00
9:53 am 09:53 Sunny 7 -13.9 2 -16.7 80 80 SW 8 13 30.39 1029 10 16 0.00 0.00
10:53 am 10:53 Sunny 9 -12.8 3 -16.1 77 77 SW 9 15 30.37 1029 10 16 0.00 0.00
11:53 am 11:53 Sunny 11 -11.7 1 -17.2 64 64 S 9 15 30.34 1028 10 16 0.00 0.00
12:53 pm 12:53 Sunny 13 -10.6 1 -17.2 59 59 S 6 9 30.31 1026 10 16 0.00 0.00
1:53 pm 13:53 Sunny 14 -10 2 -16.7 58 58 S 5 7 30.28 1025 10 16 0.00 0.00
2:53 pm 14:53 Sunny 16 -8.9 2 -16.7 54 54 SW 6 9 30.26 1025 10 16 0.00 0.00
3:53 pm 15:53 Sunny 18 -7.8 3 -16.1 52 52 SW 6 9 30.25 1024 10 16 0.00 0.00
4:53 pm 16:53 Sunny 19 -7.2 4 -15.6 51 51 W 10 17 30.25 1025 10 16 0.00 0.00
5:36 pm 17:36 Sunny 19 -7 -2 -19 38 38 NNW 15 24 30.24 1024 10 16 0.00 0.00
5:53 pm 17:53 Sunny 17 -8.3 -2 -18.9 43 43 N 10 17 30.28 1025 10 16 0.00 0.00
6:53 pm 18:53 Clear 12 -11.1 -2 -18.9 53 53 WNW 3 6 30.34 1027 10 16 0.00 0.00
7:53 pm 19:53 Clear 10 -12.2 -2 -18.9 58 58 Calm 30.35 1028 10 16 0.00 0.00
8:53 pm 20:53 Partly Cloudy 7 -13.9 -5 -20.6 57 57 W 3 6 30.36 1028 10 16 0.00 0.00
9:53 pm 21:53 Cloudy 11 -11.7 2 -16.7 67 67 NW 9 15 30.37 1029 10 16 0.00 0.00
10:53 pm 22:53 Cloudy 11 -11.7 2 -16.7 67 67 NW 8 13 30.39 1029 10 16 0.00 0.00
11:53 pm 23:53 Cloudy 11 -11.7 0 -17.8 61 61 NW 6 9 30.40 1030 10 16 0.00 0.00

Powered by AerisWeather